Meteo Giornale » Osservazioni meteo Russia » Kazan'
ore: 12:30 - Osservazioni Meteo Kazan'
Lat. 55° 47' N Lon. 49° 12' E Alt. metri s.l.m.
17 °C
Molto Nuvoloso
Temp. 24 Ore
12 °C
20 °C
Ovest/Nord-Ovest
14.4 Km/h
Dew point 12 °C
Umidità 72 %
Visibilità 10 Km
Il sole sorge alle ore 04:47
Il sole tramonta alle ore 18:38
| Data e Ora | Cielo e Fenomeni | T °C | DP °C | Um. % | Pres. hPa | Vis. km | Vento km/h | |
|---|---|---|---|---|---|---|---|---|
| Oggi h: 12:30 | Molto Nuvoloso | 17 | 12 | 72 | 1019 | 10 | O/NO 14.4 | |
| Oggi h: 12:00 | Molto Nuvoloso | 17 | 13 | 77 | 1019 | 10 | O/NO 14.4 | |
| Oggi h: 11:30 | Molto Nuvoloso | 17 | 13 | 77 | 1018 | 10 | NO 14.4 | |
| Oggi h: 11:00 | Molto Nuvoloso | 17 | 13 | 77 | 1018 | 10 | NO 10.8 | |
| Oggi h: 10:30 | Molto Nuvoloso | 17 | 13 | 77 | 1018 | 10 | N 7.2 | |
| Oggi h: 10:00 | Molto Nuvoloso | 17 | 12 | 72 | 1018 | 10 | N 7.2 | |
| Oggi h: 09:30 | Molto Nuvoloso | 17 | 11 | 67 | 1018 | 10 | N 7.2 | |
| Oggi h: 09:00 | Molto Nuvoloso | 16 | 12 | 77 | 1018 | 10 | N 7.2 | |
| Oggi h: 08:30 | Molto Nuvoloso | 16 | 12 | 77 | 1018 | 10 | N 3.6 | |
| Oggi h: 08:00 | Molto Nuvoloso | 16 | 12 | 77 | 1018 | 10 | N 3.6 | |
| Oggi h: 07:30 | Sereno | 16 | 12 | 77 | 1018 | 10 | N 7.2 | |
| Oggi h: 07:00 | Sereno | 16 | 12 | 77 | 1018 | 10 | N 0 | |
| Oggi h: 06:30 | Sereno | 15 | 12 | 82 | 1018 | 10 | N 3.6 | |
| Oggi h: 06:00 | Molto Nuvoloso | 14 | 12 | 87 | 1018 | 10 | N 0 | |
| Oggi h: 05:30 | Molto Nuvoloso | 13 | 12 | 93 | 1018 | 10 | N 3.6 | |
| Oggi h: 05:00 | Molto Nuvoloso | 12 | 11 | 93 | 1018 | 10 | N 3.6 | |
| Oggi h: 04:30 | Sereno | 13 | 11 | 87 | 1017 | 10 | N 7.2 | |
| Oggi h: 04:00 | Molto Nuvoloso | 14 | 12 | 87 | 1017 | 10 | N 3.6 | |
| Oggi h: 03:30 | Molto Nuvoloso | 14 | 12 | 87 | 1017 | 10 | N 3.6 | |
| Oggi h: 03:00 | Molto Nuvoloso | 14 | 12 | 87 | 1018 | 10 | N 7.2 | |
| Oggi h: 02:30 | Molto Nuvoloso | 14 | 12 | 87 | 1018 | 10 | N 7.2 | |
| Oggi h: 02:00 | Molto Nuvoloso | 14 | 11 | 82 | 1018 | 10 | N 7.2 | |
| Oggi h: 01:30 | Molto Nuvoloso | 14 | 11 | 82 | 1018 | 10 | N 3.6 | |
| Oggi h: 01:00 | Molto Nuvoloso | 14 | 11 | 82 | 1018 | 10 | N 7.2 | |
| Oggi h: 00:30 | Molto Nuvoloso | 14 | 11 | 82 | 1018 | 10 | N 7.2 | |
| Oggi h: 00:00 | Molto Nuvoloso | 14 | 11 | 82 | 1018 | 10 | N 0 | |
| Ieri h: 23:30 | Molto Nuvoloso | 14 | 11 | 82 | 1018 | 10 | N 7.2 | |
| Ieri h: 23:00 | Molto Nuvoloso | 14 | 11 | 82 | 1019 | 10 | N 7.2 | |
| Ieri h: 22:30 | Molto Nuvoloso | 14 | 11 | 82 | 1019 | 10 | N 7.2 | |
| Ieri h: 22:00 | Molto Nuvoloso | 14 | 11 | 82 | 1019 | 10 | N 3.6 | |
| Ieri h: 21:30 | Molto Nuvoloso | 14 | 11 | 82 | 1019 | 10 | N 3.6 | |
| Ieri h: 21:00 | Molto Nuvoloso | 15 | 10 | 72 | 1019 | 10 | N 7.2 | |
| Ieri h: 20:30 | Pioggia | 15 | 11 | 76 | 1019 | 10 | N 7.2 | |
| Ieri h: 20:00 | Sereno | 14 | 11 | 82 | 1019 | 10 | N 7.2 | |
| Ieri h: 19:30 | Sereno | 15 | 11 | 76 | 1019 | 10 | N 7.2 | |
| Ieri h: 19:00 | Sereno | 16 | 11 | 72 | 1019 | 10 | N 7.2 | |
| Ieri h: 18:30 | Sereno | 17 | 10 | 63 | 1019 | 10 | N 3.6 | |
| Ieri h: 18:00 | Sereno | 17 | 9 | 59 | 1019 | 10 | N 7.2 | |
| Ieri h: 17:30 | Sereno | 18 | 9 | 55 | 1019 | 10 | O 10.8 | |
| Ieri h: 17:00 | Poco Nuvoloso | 18 | 9 | 55 | 1019 | 10 | O 18 | |
| Ieri h: 16:30 | Poco Nuvoloso | 19 | 9 | 52 | 1019 | 10 | O 18 | |
| Ieri h: 16:00 | Sereno | 19 | 10 | 55 | 1020 | 10 | O 10.8 | |
| Ieri h: 15:30 | Sereno | 20 | 10 | 52 | 1020 | 10 | O 14.4 | |
| Ieri h: 15:00 | Sereno | 20 | 10 | 52 | 1020 | 10 | O 18 | |
| Ieri h: 14:30 | Sereno | 20 | 9 | 49 | 1020 | 10 | O 14.4 | |
| Ieri h: 14:00 | Sereno | 20 | 10 | 52 | 1020 | 10 | O 14.4 | |
| Ieri h: 13:30 | Sereno | 20 | 10 | 52 | 1020 | 10 | O/SO 18 | |
| Ieri h: 13:00 | Sereno | 20 | 11 | 56 | 1020 | 10 | O/SO 10.8 | |



